This is the latest recevied weather packets stored in our database for station/object EUGENE. If no packets are shown the sender has not sent any weather packets the latest 10 day(s).
| Time | Temp. | Humidity | Pressure | Rain* | Wind** | Luminosity | Snow |
|---|---|---|---|---|---|---|---|
| 1777442221 | 8.89° C | 82% | 1023.6 hPa | 0 mm | - | - | - |
| 1777441321 | 8.89° C | 83% | 1023.5 hPa | 0 mm | - | - | - |
| 1777440421 | 8.89° C | 82% | 1023.6 hPa | 0 mm | - | - | - |
| 1777439520 | 9.44° C | 81% | 1023.5 hPa | 0 mm | - | - | - |
| 1777438620 | 10° C | 80% | 1023.6 hPa | 0 mm | - | - | - |
| 1777437721 | 10° C | 79% | 1023.5 hPa | 0 mm | - | - | - |
| 1777436821 | 10.56° C | 76% | 1023.1 hPa | 0 mm | - | - | - |
| 1777435921 | 10.56° C | 75% | 1023 hPa | 0 mm | - | - | - |
| 1777435021 | 11.11° C | 74% | 1022.7 hPa | 0 mm | - | - | - |
| 1777434121 | 11.11° C | 73% | 1022.4 hPa | 0 mm | - | - | - |
| 1777433221 | 12.22° C | 70% | 1022.2 hPa | 0 mm | - | - | - |
| 1777432320 | 12.78° C | 68% | 1022.2 hPa | 0 mm | - | - | - |
| 1777431421 | 13.33° C | 66% | 1022.1 hPa | 0 mm | - | - | - |
| 1777430520 | 13.89° C | 64% | 1021.9 hPa | 0 mm | - | - | - |
| 1777429620 | 14.44° C | 63% | 1022 hPa | 0 mm | - | - | - |
| 1777428720 | 15.56° C | 61% | 1021.9 hPa | 0 mm | - | - | - |
| 1777427820 | 16.67° C | 59% | 1021.9 hPa | 0 mm | - | - | - |
| 1777426921 | 16.67° C | 58% | 1021.9 hPa | 0 mm | - | - | - |
| 1777426020 | 16.67° C | 57% | 1021.9 hPa | 0 mm | - | - | - |
| 1777425121 | 17.22° C | 58% | 1022 hPa | 0 mm | - | - | - |
| 1777424221 | 17.22° C | 55% | 1022 hPa | 0 mm | - | - | - |
| 1777423320 | 17.78° C | 59% | 1022 hPa | 0 mm | - | - | - |
| 1777422420 | 17.22° C | 57% | 1022.1 hPa | 0 mm | - | - | - |
| 1777421520 | 17.78° C | 53% | 1022 hPa | 0 mm | - | - | - |
| 1777420620 | 17.78° C | 51% | 1022 hPa | 0 mm | - | - | - |
* Rain latest hour (hover to see other rain measurements)
** Current wind speed in m/s (hover to see current wind gust speed)